Regional Weather Roundup
Issued by NWS Green Bay, WI

Home | Current Version | Previous Version | Text Only | Print | Product List | Glossary On
Versions: 1 2 3 4 5 6 7 8 9 10 11 12 13 14 15 16 17 18 19 20 21 22 23 24 25 26 27 28 29 30 31 32 33 34 35 36 37 38 39 40 41 42 43 44 45 46 47 48 49 50
000
ASUS43 KGRB 251510
RWRGRB

NORTH-CENTRAL AND NORTHEAST WISCONSIN REGIONAL WEATHER ROUNDUP
NATIONAL WEATHER SERVICE GREEN BAY WI
1000 AM CDT SAT OCT 25 2014

WIZ005-009-010>012-018-019-251600-
NORTH CENTRAL WISCONSIN

CITY           SKY/WX    TMP DP  RH WIND       PRES   REMARKS
IRONWOOD       SUNNY     50  34  53 W20G31    29.84R
MANITOWISH WTR SUNNY     49  34  55 W16G26    29.86R
ARBOR VITAE    SUNNY     52  37  56 NW10G21   29.86R
EAGLE RIVER    SUNNY     51  33  49 NW15G25   29.83R
LAND O LAKES   SUNNY     51  33  49 NW20G28   29.83S
RHINELANDER    SUNNY     51  33  50 NW16G29   29.86R
PHILLIPS       SUNNY     50  34  53 NW14G23   29.90R
ANTIGO         SUNNY     51  36  55 NW17G23   29.86R
TOMAHAWK       SUNNY     51  33  50 NW20G29   29.89R
MERRILL        SUNNY     53  34  48 NW14G26   29.88R
$$

WIZ013-073-251600-
NORTHEAST WISCONSIN

CITY           SKY/WX    TMP DP  RH WIND       PRES   REMARKS
IRON MOUNTAIN  SUNNY     54  33  45 NW15G31   29.75S
MARINETTE      SUNNY     57  39  51 W12       29.77F
OCONTO         SUNNY     56  42  57 W13G23    29.80F
$$

WIZ017-030-035>037-045-251600-
CENTRAL WISCONSIN

CITY           SKY/WX    TMP DP  RH WIND       PRES   REMARKS
MEDFORD        SUNNY     51  37  58 NW14G25   29.92R
WAUSAU         SUNNY     54  36  50 W18G25    29.88R
MOSINEE        SUNNY     52  37  58 NW18G26   29.90R
MARSHFIELD     SUNNY     54  38  54 NW17G25   29.92R
WISC RAPIDS    SUNNY     56  38  50 NW16G23   29.94R
STEVENS POINT  SUNNY     53  35  50 NW12G23   29.90S
WAUPACA        SUNNY     59  38  46 W12       29.89S
SHAWANO        SUNNY     57  39  50 W13G18    29.85S
CLINTONVILLE   SUNNY     55  37  50 W15G22    29.86R
$$

WIZ038-039-048-051-251600-
FOX VALLEY

CITY           SKY/WX    TMP DP  RH WIND       PRES   REMARKS
NWS GREEN BAY  SUNNY     58  43  57 W16       29.85R
APPLETON       SUNNY     55  46  71 W14       29.88S
OSHKOSH        SUNNY     57  44  62 W10G21    29.89R
FOND DU LAC    SUNNY     58  42  55 W15G23    29.91R
$$

WIZ022-050-052-251600-
EAST CENTRAL WISCONSIN

CITY           SKY/WX    TMP DP  RH WIND       PRES   REMARKS
STURGEON BAY   SUNNY     55  43  62 W16G22    29.80S
MANITOWOC      SUNNY     59  44  57 W16G22    29.84F
SHEBOYGAN      SUNNY     59  44  57 NW15G25   29.89R
$$

LMZ563-521-522-541>543-251600-
LAKESHORE

STATION/POSITION TIME  TEMP    WIND        PRES    VSBY  WAVE
                       AIR SEA DIR/SP/G                  HT/PER
                 (UTC) (F)     (DEG/KT/KT) (MB)    (MI)  (FT/S)
SHEBOYGAN LKSHOR 1500   59 51  290/ 18/ 20 1011.9R
KEWAUNEE LKSHORE 1500   58     290/ 12/ 19 1008.8S
TWO RIVERS CG    1500   58                 1010.7      6   1
NORTHPORT PIER   1500   57     270/  8/ 16 1007.8S
N MID LAKE BUOY  1500   55 51  280/ 17/ 21 1007.0R         3/ 5
CHAMBERS ISLAND  1500   56     230/ 11/ 16 1008.1F
MENOMINEE LKSHOR 1500   56     260/ 10/ 19 1009.0F
$$



USA.gov is the U.S. government's official web portal to all federal, state and local government web resources and services.